QPF
0.01 0.01 0.01 0.01 0.01 0.01 0.01 0.02 0.02 0.01 0.00 0.00 0.00 0.00 0.00 0.00 0.00 0.00 0.00 0.01 0.01 0.02 0.03 0.02 0.01 0.01 0.01 0.02 0.03 0.03 0.03 0.04 0.04 0.03 0.03 0.03 0.03 0.04 0.03 0.02 0.01 0.01 0.01 0.01
0.01 0.00 0.00 0.01 0.01 0.00 0.01 0.01 0.01 0.01 0.01 0.00 0.00 0.00 0.00 0.00 0.00 0.00 0.00 0.00 0.01 0.01 0.02 0.02 0.01 0.00 0.01 0.01 0.02 0.02 0.02 0.02 0.02 0.02 0.02 0.02 0.03 0.04 0.04 0.03 0.02 0.01 0.01 0.01
0.01 0.00 0.01 0.01 0.01 0.01 0.01 0.01 0.01 0.01 0.01 0.00 0.00 0.01 0.01 0.01 0.01 0.01 0.00 0.00 0.00 0.00 0.01 0.01 0.01 0.01 0.01 0.01 0.01 0.01 0.02 0.01 0.02 0.02 0.02 0.02 0.03 0.05 0.05 0.04 0.03 0.01 0.01 0.01
0.03 0.01 0.02 0.01 0.01 0.01 0.01 0.01 0.00 0.01 0.00 0.01 0.01 0.01 0.01 0.01 0.01 0.01 0.01 0.01 0.01 0.01 0.00 0.01 0.01 0.01 0.00 0.01 0.01 0.01 0.01 0.01 0.01 0.01 0.01 0.02 0.03 0.04 0.05 0.05 0.03 0.02 0.01 0.01
0.04 0.02 0.01 0.01 0.01 0.02 0.02 0.01 0.00 0.00 0.00 0.00 0.01 0.01 0.01 0.01 0.01 0.01 0.01 0.01 0.01 0.01 0.01 0.01 0.01 0.01 0.01 0.01 0.01 0.01 0.01 0.01 0.01 0.01 0.01 0.01 0.02 0.03 0.04 0.05 0.05 0.03 0.02 0.01
0.04 0.03 0.01 0.02 0.02 0.01 0.01 0.01 0.00 0.00 0.01 0.01 0.01 0.02 0.01 0.01 0.01 0.01 0.01 0.01 0.01 0.01 0.01 0.01 0.01 0.01 0.01 0.01 0.01 0.00 0.00 0.00 0.00 0.01 0.01 0.01 0.01 0.02 0.04 0.05 0.05 0.04 0.03 0.02
0.03 0.03 0.02 0.02 0.02 0.01 0.02 0.02 0.01 0.01 0.01 0.01 0.02 0.02 0.01 0.01 0.01 0.01 0.01 0.01 0.01 0.01 0.01 0.01 0.01 0.01 0.01 0.01 0.01 0.00 0.00 0.00 0.00 0.00 0.00 0.01 0.01 0.01 0.03 0.04 0.04 0.04 0.03 0.02
0.02 0.03 0.02 0.02 0.02 0.02 0.02 0.02 0.01 0.01 0.01 0.01 0.01 0.01 0.01 0.01 0.01 0.01 0.01 0.01 0.01 0.01 0.01 0.01 0.02 0.02 0.01 0.01 0.01 0.01 0.00 0.01 0.00 0.00 0.01 0.01 0.01 0.01 0.02 0.03 0.04 0.05 0.04 0.03
0.01 0.01 0.02 0.02 0.03 0.02 0.01 0.01 0.01 0.00 0.01 0.01 0.01 0.01 0.01 0.01 0.01 0.01 0.02 0.01 0.01 0.01 0.01 0.01 0.01 0.02 0.02 0.02 0.01 0.01 0.01 0.01 0.01 0.01 0.01 0.01 0.01 0.02 0.02 0.03 0.03 0.03 0.05 0.04
0.00 0.00 0.01 0.02 0.02 0.02 0.01 0.01 0.00 0.00 0.00 0.00 0.00 0.01 0.01 0.01 0.02 0.02 0.02 0.02 0.01 0.01 0.01 0.01 0.01 0.01 0.02 0.02 0.02 0.01 0.01 0.01 0.01 0.01 0.01 0.02 0.01 0.01 0.02 0.02 0.02 0.02 0.02 0.04
0.00 0.00 0.00 0.01 0.01 0.02 0.01 0.01 0.00 0.00 0.00 0.00 0.00 0.00 0.01 0.01 0.02 0.02 0.03 0.03 0.02 0.01 0.01 0.02 0.01 0.01 0.02 0.02 0.02 0.02 0.02 0.02 0.02 0.02 0.02 0.02 0.02 0.02 0.02 0.02 0.02 0.02 0.01 0.01
0.00 0.00 0.00 0.00 0.01 0.01 0.02 0.02 0.01 0.01 0.00 0.00 0.00 0.00 0.01 0.01 0.02 0.02 0.03 0.03 0.02 0.01 0.01 0.01 0.02 0.01 0.02 0.02 0.02 0.02 0.02 0.02 0.02 0.02 0.02 0.02 0.02 0.02 0.03 0.02 0.03 0.02 0.03 0.02
0.00 0.00 0.00 0.00 0.00 0.01 0.02 0.02 0.01 0.01 0.01 0.01 0.00 0.01 0.01 0.02 0.02 0.02 0.02 0.03 0.02 0.02 0.01 0.01 0.02 0.02 0.02 0.02 0.02 0.02 0.03 0.03 0.03 0.02 0.03 0.03 0.03 0.02 0.02 0.03 0.04 0.04 0.05 0.05
0.00 0.00 0.00 0.00 0.00 0.01 0.01 0.02 0.02 0.01 0.01 0.01 0.01 0.01 0.02 0.02 0.03 0.03 0.02 0.02 0.02 0.02 0.02 0.01 0.01 0.02 0.02 0.02 0.02 0.02 0.03 0.03 0.03 0.02 0.02 0.03 0.03 0.03 0.02 0.02 0.03 0.03 0.04 0.05
0.00 0.00 0.00 0.00 0.00 0.00 0.01 0.01 0.02 0.02 0.02 0.01 0.01 0.02 0.02 0.03 0.03 0.02 0.02 0.02 0.01 0.02 0.01 0.01 0.01 0.02 0.02 0.02 0.02 0.03 0.03 0.03 0.03 0.03 0.02 0.02 0.02 0.03 0.03 0.02 0.02 0.02 0.03 0.05
0.00 0.00 0.00 0.00 0.00 0.00 0.00 0.01 0.01 0.01 0.01 0.02 0.01 0.02 0.02 0.03 0.03 0.03 0.02 0.01 0.01 0.01 0.01 0.01 0.01 0.02 0.02 0.02 0.03 0.03 0.03 0.04 0.04 0.04 0.03 0.03 0.02 0.02 0.03 0.03 0.02 0.02 0.03 0.03
0.00 0.00 0.00 0.00 0.00 0.00 0.00 0.01 0.01 0.01 0.01 0.01 0.01 0.01 0.02 0.03 0.03 0.03 0.02 0.01 0.01 0.01 0.01 0.01 0.02 0.02 0.02 0.03 0.03 0.04 0.04 0.04 0.04 0.04 0.04 0.03 0.03 0.03 0.02 0.03 0.03 0.02 0.02 0.03
0.00 0.01 0.01 0.01 0.01 0.01 0.01 0.01 0.00 0.00 0.01 0.01 0.01 0.01 0.02 0.03 0.04 0.04 0.03 0.03 0.03 0.02 0.02 0.02 0.02 0.02 0.02 0.03 0.04 0.04 0.04 0.04 0.03 0.03 0.03 0.04 0.03 0.03 0.03 0.03 0.03 0.02 0.02 0.03
0.00 0.00 0.00 0.00 0.01 0.01 0.01 0.01 0.01 0.00 0.01 0.01 0.01 0.01 0.02 0.03 0.04 0.04 0.04 0.04 0.04 0.04 0.04 0.03 0.03 0.02 0.03 0.04 0.05 0.04 0.04 0.04 0.04 0.04 0.03 0.04 0.04 0.03 0.03 0.02 0.02 0.02 0.02 0.02
0.00 0.00 0.00 0.00 0.00 0.01 0.01 0.01 0.01 0.00 0.01 0.01 0.01 0.01 0.02 0.03 0.04 0.05 0.04 0.04 0.04 0.04 0.04 0.04 0.03 0.03 0.04 0.05 0.05 0.04 0.04 0.03 0.03 0.04 0.04 0.04 0.03 0.03 0.02 0.02 0.02 0.02 0.02 0.02
0.00 0.00 0.00 0.00 0.00 0.01 0.01 0.01 0.01 0.01 0.01 0.01 0.02 0.02 0.02 0.03 0.04 0.05 0.04 0.04 0.04 0.04 0.05 0.05 0.04 0.04 0.04 0.05 0.06 0.04 0.04 0.03 0.03 0.03 0.04 0.04 0.03 0.03 0.03 0.02 0.02 0.02 0.02 0.02
0.00 0.00 0.00 0.00 0.01 0.01 0.01 0.01 0.01 0.01 0.01 0.01 0.02 0.02 0.02 0.03 0.04 0.05 0.05 0.04 0.04 0.05 0.04 0.04 0.04 0.04 0.05 0.06 0.05 0.04 0.04 0.04 0.04 0.04 0.04 0.04 0.03 0.03 0.03 0.02 0.02 0.02 0.02 0.02
0.00 0.00 0.01 0.01 0.01 0.01 0.01 0.01 0.01 0.01 0.01 0.02 0.02 0.02 0.02 0.03 0.04 0.05 0.05 0.04 0.03 0.04 0.04 0.03 0.03 0.04 0.05 0.04 0.05 0.04 0.03 0.03 0.03 0.03 0.03 0.03 0.03 0.02 0.02 0.02 0.02 0.02 0.02 0.02
0.00 0.00 0.01 0.01 0.01 0.01 0.01 0.01 0.01 0.01 0.01 0.02 0.02 0.03 0.03 0.03 0.04 0.05 0.04 0.04 0.03 0.03 0.03 0.03 0.03 0.04 0.04 0.04 0.04 0.04 0.03 0.03 0.03 0.03 0.03 0.03 0.03 0.02 0.03 0.03 0.02 0.02 0.02 0.02
0.00 0.01 0.01 0.01 0.01 0.01 0.01 0.01 0.01 0.01 0.01 0.01 0.02 0.02 0.03 0.04 0.04 0.05 0.04 0.03 0.03 0.04 0.03 0.03 0.03 0.04 0.05 0.04 0.04 0.03 0.03 0.03 0.03 0.04 0.03 0.03 0.03 0.03 0.03 0.03 0.03 0.03 0.03 0.03
0.01 0.01 0.01 0.01 0.01 0.01 0.01 0.01 0.01 0.01 0.02 0.02 0.02 0.02 0.03 0.03 0.04 0.04 0.04 0.04 0.04 0.04 0.03 0.04 0.04 0.05 0.05 0.04 0.04 0.03 0.03 0.03 0.04 0.04 0.03 0.03 0.03 0.03 0.03 0.03 0.03 0.03 0.03 0.03
0.01 0.01 0.01 0.01 0.01 0.01 0.01 0.01 0.01 0.02 0.02 0.02 0.03 0.03 0.03 0.04 0.04 0.04 0.04 0.04 0.04 0.04 0.04 0.04 0.05 0.05 0.05 0.05 0.04 0.04 0.03 0.03 0.04 0.04 0.04 0.04 0.03 0.03 0.03 0.03 0.03 0.03 0.03 0.03
MSLP
1015.15 1015.40 1015.53 1015.48 1015.23 1014.78 1014.14 1013.37 1012.50 1011.59 1010.68 1009.82 1009.04 1008.34 1007.71 1007.16 1006.66 1006.19 1005.75 1005.31 1004.86 1004.40 1003.91 1003.38 1002.82 1002.20 1001.54 1000.84 1000.11 999.40 998.74 998.19 997.78 997.56 997.57 997.81 998.28 998.93 999.72 1000.60 1001.51 1002.40 1003.24 1004.00
1014.51 1014.62 1014.58 1014.36 1013.96 1013.40 1012.72 1011.97 1011.20 1010.44 1009.72 1009.07 1008.48 1007.94 1007.43 1006.95 1006.46 1005.97 1005.48 1004.99 1004.51 1004.04 1003.58 1003.13 1002.65 1002.13 1001.55 1000.91 1000.22 999.49 998.76 998.10 997.56 997.19 997.05 997.15 997.50 998.08 998.83 999.70 1000.64 1001.57 1002.47 1003.29
1013.78 1013.73 1013.50 1013.09 1012.53 1011.86 1011.13 1010.40 1009.71 1009.10 1008.58 1008.14 1007.76 1007.41 1007.05 1006.65 1006.21 1005.72 1005.21 1004.68 1004.18 1003.70 1003.26 1002.84 1002.43 1001.98 1001.48 1000.89 1000.22 999.47 998.70 997.95 997.29 996.80 996.52 996.50 996.75 997.25 997.96 998.83 999.78 1000.75 1001.70 1002.58
1012.94 1012.72 1012.32 1011.74 1011.04 1010.26 1009.49 1008.78 1008.18 1007.72 1007.38 1007.14 1006.97 1006.80 1006.58 1006.29 1005.92 1005.46 1004.94 1004.40 1003.88 1003.39 1002.95 1002.56 1002.18 1001.78 1001.33 1000.77 1000.11 999.35 998.53 997.70 996.95 996.35 995.96 995.83 996.00 996.43 997.10 997.96 998.92 999.93 1000.92 1001.85
1011.95 1011.60 1011.05 1010.35 1009.54 1008.71 1007.92 1007.25 1006.74 1006.40 1006.22 1006.16 1006.16 1006.15 1006.07 1005.88 1005.58 1005.15 1004.65 1004.11 1003.58 1003.09 1002.66 1002.27 1001.92 1001.54 1001.10 1000.55 999.88 999.10 998.23 997.34 996.51 995.82 995.34 995.13 995.22 995.61 996.25 997.09 998.07 999.10 1000.13 1001.11
1010.78 1010.34 1009.71 1008.94 1008.10 1007.26 1006.50 1005.89 1005.47 1005.25 1005.20 1005.27 1005.40 1005.51 1005.53 1005.42 1005.17 1004.79 1004.31 1003.78 1003.26 1002.77 1002.35 1001.97 1001.62 1001.24 1000.80 1000.24 999.55 998.73 997.82 996.87 995.97 995.21 994.66 994.39 994.43 994.78 995.40 996.23 997.22 998.28 999.34 1000.37
1009.39 1008.92 1008.28 1007.53 1006.72 1005.93 1005.25 1004.73 1004.41 1004.29 1004.33 1004.50 1004.70 1004.88 1004.95 1004.89 1004.68 1004.33 1003.88 1003.38 1002.88 1002.41 1001.99 1001.63 1001.27 1000.89 1000.43 999.85 999.12 998.26 997.30 996.30 995.35 994.53 993.94 993.63 993.64 993.96 994.57 995.41 996.40 997.48 998.58 999.65
1007.78 1007.34 1006.76 1006.10 1005.40 1004.74 1004.18 1003.78 1003.56 1003.52 1003.63 1003.83 1004.07 1004.26 1004.34 1004.30 1004.10 1003.78 1003.35 1002.89 1002.42 1001.98 1001.59 1001.24 1000.88 1000.49 1000.01 999.39 998.62 997.71 996.71 995.67 994.68 993.83 993.21 992.88 992.87 993.19 993.80 994.64 995.66 996.76 997.89 999.00
1005.98 1005.63 1005.18 1004.67 1004.14 1003.65 1003.25 1002.99 1002.87 1002.90 1003.05 1003.26 1003.48 1003.64 1003.70 1003.63 1003.44 1003.13 1002.74 1002.31 1001.89 1001.50 1001.15 1000.82 1000.47 1000.06 999.55 998.90 998.08 997.13 996.09 995.01 994.00 993.13 992.50 992.17 992.17 992.50 993.12 993.99 995.02 996.16 997.32 998.46
1004.08 1003.85 1003.57 1003.25 1002.93 1002.65 1002.44 1002.32 1002.31 1002.39 1002.55 1002.74 1002.91 1003.02 1003.03 1002.93 1002.72 1002.42 1002.06 1001.69 1001.33 1001.00 1000.69 1000.39 1000.05 999.63 999.10 998.40 997.55 996.56 995.47 994.38 993.35 992.48 991.87 991.56 991.58 991.94 992.59 993.49 994.55 995.72 996.91 998.09
1002.20 1002.11 1002.02 1001.91 1001.81 1001.73 1001.70 1001.72 1001.81 1001.94 1002.09 1002.24 1002.35 1002.39 1002.34 1002.20 1001.98 1001.69 1001.38 1001.07 1000.78 1000.51 1000.25 999.98 999.65 999.23 998.66 997.93 997.04 996.01 994.90 993.80 992.77 991.93 991.34 991.07 991.13 991.54 992.23 993.17 994.28 995.48 996.72 997.94
1000.47 1000.53 1000.61 1000.70 1000.79 1000.91 1001.03 1001.18 1001.34 1001.49 1001.63 1001.74 1001.78 1001.76 1001.66 1001.49 1001.26 1001.00 1000.74 1000.49 1000.27 1000.07 999.86 999.62 999.30 998.86 998.26 997.50 996.57 995.51 994.39 993.29 992.28 991.47 990.93 990.72 990.85 991.31 992.07 993.06 994.22 995.48 996.76 998.02
999.04 999.22 999.44 999.68 999.94 1000.20 1000.45 1000.68 1000.89 1001.06 1001.17 1001.23 1001.22 1001.15 1001.01 1000.82 1000.60 1000.38 1000.17 999.99 999.83 999.68 999.51 999.29 998.97 998.50 997.88 997.07 996.11 995.04 993.92 992.83 991.87 991.11 990.64 990.51 990.72 991.26 992.09 993.15 994.38 995.69 997.02 998.33
997.98 998.24 998.57 998.92 999.29 999.64 999.96 1000.24 1000.47 1000.63 1000.72 1000.74 1000.68 1000.57 1000.41 1000.22 1000.03 999.85 999.69 999.57 999.46 999.35 999.20 998.97 998.63 998.13 997.47 996.63 995.64 994.56 993.45 992.40 991.50 990.82 990.44 990.40 990.70 991.34 992.26 993.40 994.70 996.08 997.47 998.82
997.33 997.65 998.04 998.45 998.87 999.26 999.61 999.89 1000.11 1000.24 1000.30 1000.28 1000.19 1000.06 999.89 999.71 999.55 999.40 999.29 999.20 999.12 999.02 998.87 998.62 998.24 997.70 996.99 996.12 995.11 994.04 992.96 991.97 991.14 990.56 990.29 990.36 990.78 991.52 992.54 993.78 995.15 996.60 998.05 999.46
997.09 997.43 997.84 998.26 998.68 999.07 999.40 999.65 999.83 999.93 999.94 999.89 999.77 999.62 999.46 999.30 999.15 999.04 998.95 998.87 998.80 998.68 998.49 998.20 997.77 997.17 996.42 995.52 994.51 993.46 992.43 991.52 990.79 990.33 990.18 990.37 990.91 991.77 992.90 994.23 995.69 997.21 998.72 1000.18
997.18 997.54 997.93 998.34 998.72 999.06 999.34 999.54 999.66 999.70 999.67 999.58 999.45 999.29 999.12 998.97 998.84 998.73 998.64 998.55 998.44 998.28 998.04 997.68 997.18 996.53 995.74 994.82 993.83 992.82 991.87 991.05 990.45 990.11 990.10 990.43 991.10 992.07 993.30 994.72 996.26 997.84 999.41 1000.92
997.53 997.89 998.25 998.61 998.94 999.21 999.42 999.55 999.60 999.59 999.51 999.38 999.22 999.05 998.88 998.72 998.58 998.46 998.34 998.21 998.05 997.82 997.50 997.07 996.50 995.80 994.98 994.06 993.10 992.17 991.31 990.62 990.15 989.96 990.09 990.56 991.34 992.42 993.74 995.24 996.84 998.49 1000.10 1001.65
998.05 998.39 998.73 999.03 999.29 999.48 999.60 999.65 999.64 999.56 999.43 999.26 999.08 998.89 998.70 998.53 998.36 998.21 998.04 997.85 997.61 997.30 996.90 996.39 995.76 995.03 994.20 993.31 992.41 991.57 990.83 990.28 989.96 989.92 990.19 990.79 991.68 992.85 994.24 995.80 997.45 999.12 1000.77 1002.34
998.66 998.98 999.27 999.51 999.69 999.80 999.83 999.80 999.71 999.57 999.40 999.19 998.98 998.77 998.55 998.35 998.15 997.94 997.72 997.46 997.14 996.75 996.27 995.70 995.03 994.28 993.47 992.64 991.83 991.10 990.51 990.10 989.94 990.04 990.45 991.16 992.15 993.39 994.83 996.41 998.07 999.76 1001.42 1003.00
999.27 999.56 999.80 999.96 1000.06 1000.08 1000.03 999.92 999.76 999.57 999.34 999.10 998.86 998.62 998.38 998.14 997.89 997.64 997.35 997.02 996.63 996.17 995.63 995.02 994.34 993.61 992.85 992.10 991.41 990.82 990.38 990.14 990.13 990.38 990.90 991.71 992.77 994.05 995.50 997.09 998.74 1000.41 1002.05 1003.62
999.85 1000.08 1000.24 1000.32 1000.33 1000.26 1000.12 999.93 999.71 999.45 999.18 998.91 998.63 998.36 998.10 997.82 997.54 997.24 996.90 996.51 996.07 995.57 995.01 994.39 993.73 993.05 992.37 991.74 991.18 990.75 990.47 990.39 990.53 990.91 991.55 992.43 993.54 994.83 996.28 997.84 999.46 1001.09 1002.69 1004.23
1000.32 1000.47 1000.53 1000.52 1000.42 1000.25 1000.02 999.75 999.45 999.14 998.83 998.52 998.22 997.93 997.64 997.34 997.03 996.70 996.33 995.92 995.46 994.95 994.39 993.81 993.21 992.61 992.04 991.54 991.14 990.87 990.76 990.83 991.12 991.62 992.35 993.29 994.42 995.72 997.14 998.66 1000.22 1001.80 1003.35 1004.84
1000.63 1000.67 1000.61 1000.48 1000.26 999.98 999.66 999.31 998.94 998.57 998.22 997.88 997.56 997.25 996.95 996.65 996.33 995.99 995.62 995.21 994.76 994.28 993.78 993.26 992.74 992.26 991.82 991.48 991.24 991.13 991.19 991.42 991.83 992.44 993.25 994.23 995.38 996.66 998.05 999.51 1001.02 1002.53 1004.02 1005.45
1000.73 1000.63 1000.43 1000.16 999.82 999.43 999.01 998.57 998.13 997.71 997.32 996.96 996.62 996.31 996.01 995.72 995.42 995.10 994.76 994.39 993.99 993.57 993.15 992.73 992.33 991.98 991.70 991.51 991.43 991.49 991.70 992.07 992.61 993.31 994.18 995.20 996.35 997.61 998.97 1000.38 1001.82 1003.27 1004.70 1006.09
1000.55 1000.30 999.96 999.55 999.09 998.58 998.06 997.54 997.04 996.58 996.15 995.77 995.44 995.13 994.86 994.59 994.33 994.06 993.78 993.48 993.17 992.85 992.53 992.24 991.98 991.77 991.64 991.62 991.70 991.91 992.26 992.75 993.39 994.17 995.09 996.14 997.29 998.54 999.86 1001.23 1002.62 1004.01 1005.39 1006.74
1000.08 999.68 999.20 998.67 998.09 997.48 996.87 996.29 995.74 995.24 994.79 994.41 994.09 993.81 993.58 993.37 993.17 992.98 992.78 992.58 992.38 992.18 991.99 991.83 991.72 991.66 991.69 991.81 992.04 992.38 992.85 993.44 994.17 995.01 995.97 997.04 998.20 999.43 1000.72 1002.05 1003.40 1004.76 1006.10 1007.41
Thickness
5432 5435 5429 5427 5431 5431 5427 5434 5439 5459 5467 5478 5480 5482 5484 5489 5493 5499 5506 5511 5518 5525 5534 5543 5552 5561 5571 5580 5589 5598 5606 5614 5621 5627 5632 5635 5638 5640 5641 5641 5641 5640 5638 5637
5426 5431 5427 5425 5434 5436 5437 5438 5441 5446 5455 5467 5470 5473 5475 5480 5484 5490 5496 5502 5508 5515 5523 5532 5540 5549 5559 5569 5578 5587 5596 5605 5613 5618 5623 5628 5630 5633 5634 5635 5635 5634 5633 5631
5423 5427 5420 5427 5441 5440 5441 5443 5441 5443 5455 5460 5461 5463 5466 5470 5475 5480 5486 5492 5498 5505 5512 5521 5529 5537 5546 5558 5567 5576 5586 5595 5602 5609 5615 5620 5623 5625 5628 5629 5629 5629 5628 5627
5408 5408 5407 5444 5442 5437 5436 5437 5437 5439 5445 5448 5450 5456 5459 5461 5465 5471 5477 5482 5488 5495 5502 5510 5518 5527 5536 5546 5556 5566 5576 5585 5593 5599 5606 5611 5614 5618 5620 5621 5622 5622 5622 5622
5398 5405 5423 5437 5434 5427 5424 5430 5434 5434 5438 5440 5442 5447 5453 5454 5455 5460 5466 5472 5478 5485 5492 5499 5507 5516 5526 5536 5546 5557 5567 5575 5583 5590 5596 5601 5606 5610 5612 5613 5615 5615 5616 5615
5390 5392 5410 5437 5428 5421 5417 5423 5430 5428 5429 5431 5433 5437 5446 5446 5446 5450 5456 5461 5467 5473 5481 5490 5498 5506 5516 5526 5537 5547 5556 5565 5572 5580 5587 5593 5598 5602 5604 5606 5607 5607 5607 5608
5385 5390 5413 5426 5416 5410 5407 5423 5422 5421 5421 5421 5424 5428 5432 5435 5437 5440 5446 5451 5457 5463 5471 5480 5487 5496 5507 5517 5526 5536 5544 5554 5563 5570 5577 5584 5589 5592 5595 5597 5598 5599 5599 5599
5385 5385 5405 5417 5404 5405 5414 5415 5412 5412 5412 5413 5416 5419 5421 5424 5427 5431 5435 5441 5447 5453 5461 5470 5477 5486 5497 5506 5515 5525 5534 5544 5554 5561 5567 5573 5578 5582 5586 5588 5588 5589 5589 5589
5397 5409 5415 5408 5404 5405 5404 5404 5404 5404 5404 5405 5406 5410 5413 5415 5418 5422 5426 5431 5436 5442 5450 5459 5468 5476 5485 5495 5504 5514 5523 5534 5543 5551 5558 5563 5568 5572 5576 5579 5580 5581 5582 5582
5390 5403 5404 5399 5397 5396 5395 5395 5396 5396 5397 5397 5399 5402 5405 5407 5410 5412 5416 5421 5425 5431 5440 5449 5457 5465 5474 5484 5493 5503 5513 5524 5532 5540 5547 5553 5558 5563 5567 5570 5572 5573 5573 5574
5386 5397 5396 5395 5391 5390 5389 5388 5387 5387 5388 5389 5390 5394 5396 5398 5401 5404 5407 5411 5415 5421 5429 5438 5446 5455 5465 5473 5482 5492 5502 5512 5521 5529 5536 5542 5548 5553 5557 5562 5565 5566 5567 5568
5390 5396 5389 5392 5390 5386 5382 5381 5380 5380 5381 5383 5382 5385 5388 5391 5393 5395 5398 5402 5406 5412 5419 5428 5436 5446 5455 5463 5472 5481 5491 5501 5510 5517 5525 5531 5536 5540 5544 5549 5551 5553 5556 5557
5388 5389 5384 5383 5381 5378 5375 5374 5374 5374 5374 5375 5377 5377 5379 5382 5384 5387 5390 5394 5399 5404 5411 5419 5427 5436 5445 5453 5461 5471 5481 5489 5498 5507 5514 5520 5525 5530 5532 5534 5537 5539 5542 5544
5379 5376 5374 5374 5372 5369 5368 5367 5367 5367 5367 5368 5369 5370 5371 5374 5377 5380 5384 5387 5391 5397 5403 5411 5418 5427 5435 5443 5451 5461 5470 5478 5487 5496 5503 5509 5514 5518 5522 5525 5527 5527 5528 5529
5371 5367 5366 5366 5364 5362 5360 5359 5359 5360 5361 5361 5362 5363 5365 5367 5370 5374 5377 5380 5384 5390 5397 5403 5411 5419 5426 5433 5441 5450 5459 5467 5476 5484 5491 5498 5503 5506 5510 5513 5515 5516 5516 5515
5363 5360 5359 5357 5356 5355 5353 5352 5353 5355 5355 5355 5356 5358 5360 5361 5364 5367 5370 5373 5378 5385 5391 5396 5403 5411 5417 5423 5431 5439 5448 5456 5464 5473 5481 5486 5491 5495 5498 5501 5502 5504 5505 5505
5354 5354 5352 5350 5350 5348 5347 5347 5347 5347 5348 5348 5350 5351 5353 5355 5358 5362 5365 5368 5373 5378 5383 5389 5396 5402 5408 5415 5422 5430 5438 5446 5453 5461 5469 5476 5480 5483 5486 5489 5491 5493 5494 5494
5349 5348 5345 5343 5342 5340 5340 5339 5339 5339 5340 5342 5342 5344 5346 5349 5353 5357 5359 5362 5367 5372 5378 5384 5389 5394 5401 5408 5414 5421 5429 5437 5444 5452 5459 5465 5469 5472 5475 5478 5481 5482 5481 5481
5339 5337 5336 5335 5333 5332 5332 5332 5332 5332 5333 5334 5335 5337 5340 5342 5345 5348 5352 5356 5361 5367 5374 5377 5381 5388 5394 5400 5406 5413 5421 5428 5435 5441 5448 5453 5458 5461 5464 5467 5469 5471 5470 5470
5329 5328 5326 5325 5324 5323 5324 5324 5324 5325 5326 5326 5328 5330 5333 5336 5338 5341 5344 5350 5355 5361 5366 5370 5375 5381 5387 5393 5399 5406 5413 5420 5426 5432 5437 5443 5448 5451 5455 5457 5459 5460 5460 5460
5320 5319 5317 5316 5316 5316 5316 5316 5316 5318 5319 5319 5321 5323 5326 5329 5331 5334 5338 5345 5351 5353 5359 5364 5370 5376 5381 5387 5393 5400 5406 5412 5417 5423 5428 5434 5438 5442 5444 5446 5448 5450 5451 5451
5311 5310 5309 5308 5307 5308 5308 5309 5309 5310 5311 5313 5315 5316 5319 5323 5326 5329 5333 5338 5344 5347 5353 5360 5366 5371 5376 5382 5388 5394 5399 5404 5410 5415 5420 5425 5429 5433 5435 5438 5440 5441 5442 5443
5302 5301 5300 5299 5299 5300 5300 5301 5302 5303 5305 5307 5309 5312 5314 5318 5321 5325 5331 5335 5338 5344 5350 5357 5363 5368 5372 5377 5382 5388 5393 5398 5403 5407 5412 5417 5421 5425 5428 5430 5432 5433 5435 5436
5293 5292 5291 5290 5290 5292 5293 5296 5296 5297 5299 5301 5303 5305 5308 5313 5318 5322 5325 5330 5334 5340 5346 5352 5358 5363 5366 5371 5376 5381 5387 5392 5396 5400 5405 5409 5413 5417 5420 5422 5424 5426 5427 5428
5284 5282 5282 5282 5284 5287 5288 5289 5290 5292 5294 5297 5300 5302 5304 5308 5313 5318 5322 5327 5331 5336 5341 5347 5351 5356 5360 5365 5370 5375 5381 5386 5390 5394 5399 5403 5407 5410 5413 5416 5418 5419 5420 5422
5276 5277 5278 5278 5279 5281 5282 5284 5286 5288 5290 5293 5296 5299 5302 5306 5310 5315 5319 5323 5327 5332 5336 5341 5346 5350 5355 5360 5364 5369 5374 5380 5384 5389 5394 5398 5401 5404 5407 5410 5411 5413 5414 5416
5271 5271 5271 5273 5275 5276 5277 5279 5281 5283 5285 5288 5291 5295 5299 5303 5308 5312 5315 5319 5324 5328 5332 5336 5341 5346 5350 5355 5359 5364 5370 5375 5379 5384 5388 5392 5395 5399 5401 5404 5405 5407 5408 5410